Location: Peterborough
(44.3091°N, 78.3197°W)
Time: 06:13:35
(UTC-04:00)

Vanguard 3 - Pass Details

Date: 24 February 2024
Orbit: 510 x 3236 km, 33.3° (Epoch: 12 April)

Event Time Altitude Azimuth Distance (km) Brightness Sun altitude
Rises 21:46:46 0° 243° (WSW) 7,031 12.2 -40.9°
Reaches altitude 10° 21:51:30 10° 239° (WSW) 6,124 11.8 -41.6°
Enters shadow 22:07:10 51° 196° (SSW) 3,636 10.1 -43.8°
Maximum altitude 22:10:19 54° 170° (S) 3,429 - -44.3°
Drops below altitude 10° 22:24:47 10° 99° (E) 4,844 - -46.2°
Sets 22:28:01 0° 95° (E) 5,537 - -46.6°
